AL, 02, 1892081500,   , BEST,   0, 180N,  545W,  35,     , TS, , , , , , , , , , , , , ,    UNNAMED
AL, 02, 1892081506,   , BEST,   0, 180N,  555W,  35,     , TS, , , , , , , , , , , , , ,    UNNAMED
AL, 02, 1892081512,   , BEST,   0, 180N,  565W,  35,     , TS, , , , , , , , , , , , , ,    UNNAMED
AL, 02, 1892081518,   , BEST,   0, 181N,  575W,  35,     , TS, , , , , , , , , , , , , ,    UNNAMED
AL, 02, 1892081600,   , BEST,   0, 182N,  585W,  35,     , TS, , , , , , , , , , , , , ,    UNNAMED
AL, 02, 1892081606,   , BEST,   0, 185N,  595W,  35,     , TS, , , , , , , , , , , , , ,    UNNAMED
AL, 02, 1892081612,   , BEST,   0, 189N,  605W,  40,     , TS, , , , , , , , , , , , , ,    UNNAMED
AL, 02, 1892081618,   , BEST,   0, 193N,  614W,  40,     , TS, , , , , , , , , , , , , ,    UNNAMED
AL, 02, 1892081700,   , BEST,   0, 197N,  622W,  45,     , TS, , , , , , , , , , , , , ,    UNNAMED
AL, 02, 1892081706,   , BEST,   0, 201N,  630W,  45,     , TS, , , , , , , , , , , , , ,    UNNAMED
AL, 02, 1892081712,   , BEST,   0, 206N,  637W,  50,     , TS, , , , , , , , , , , , , ,    UNNAMED
AL, 02, 1892081718,   , BEST,   0, 211N,  643W,  50,     , TS, , , , , , , , , , , , , ,    UNNAMED
AL, 02, 1892081800,   , BEST,   0, 215N,  650W,  55,     , TS, , , , , , , , , , , , , ,    UNNAMED
AL, 02, 1892081806,   , BEST,   0, 220N,  657W,  55,     , TS, , , , , , , , , , , , , ,    UNNAMED
AL, 02, 1892081812,   , BEST,   0, 228N,  663W,  60,     , TS, , , , , , , , , , , , , ,    UNNAMED
AL, 02, 1892081818,   , BEST,   0, 240N,  670W,  60,     , TS, , , , , , , , , , , , , ,    UNNAMED
AL, 02, 1892081900,   , BEST,   0, 249N,  673W,  65,     , HU, , , , , , , , , , , , , ,    UNNAMED
AL, 02, 1892081906,   , BEST,   0, 259N,  677W,  65,     , HU, , , , , , , , , , , , , ,    UNNAMED
AL, 02, 1892081912,   , BEST,   0, 270N,  680W,  65,     , HU, , , , , , , , , , , , , ,    UNNAMED
AL, 02, 1892081918,   , BEST,   0, 284N,  684W,  65,     , HU, , , , , , , , , , , , , ,    UNNAMED
AL, 02, 1892082000,   , BEST,   0, 300N,  686W,  65,     , HU, , , , , , , , , , , , , ,    UNNAMED
AL, 02, 1892082006,   , BEST,   0, 318N,  686W,  65,     , HU, , , , , , , , , , , , , ,    UNNAMED
AL, 02, 1892082012,   , BEST,   0, 335N,  680W,  65,     , HU, , , , , , , , , , , , , ,    UNNAMED
AL, 02, 1892082018,   , BEST,   0, 351N,  672W,  65,     , HU, , , , , , , , , , , , , ,    UNNAMED
AL, 02, 1892082100,   , BEST,   0, 364N,  662W,  65,     , HU, , , , , , , , , , , , , ,    UNNAMED
AL, 02, 1892082106,   , BEST,   0, 382N,  647W,  65,     , HU, , , , , , , , , , , , , ,    UNNAMED
AL, 02, 1892082112,   , BEST,   0, 400N,  630W,  65,     , HU, , , , , , , , , , , , , ,    UNNAMED
AL, 02, 1892082118,   , BEST,   0, 417N,  616W,  65,     , HU, , , , , , , , , , , , , ,    UNNAMED
AL, 02, 1892082200,   , BEST,   0, 435N,  598W,  60,     , EX, , , , , , , , , , , , , ,    UNNAMED
AL, 02, 1892082206,   , BEST,   0, 452N,  578W,  55,     , EX, , , , , , , , , , , , , ,    UNNAMED
AL, 02, 1892082212,   , BEST,   0, 470N,  552W,  50,     , EX, , , , , , , , , , , , , ,    UNNAMED
AL, 02, 1892082218,   , BEST,   0, 492N,  515W,  50,     , EX, , , , , , , , , , , , , ,    UNNAMED
AL, 02, 1892082300,   , BEST,   0, 519N,  470W,  50,     , EX, , , , , , , , , , , , , ,    UNNAMED
AL, 02, 1892082306,   , BEST,   0, 547N,  435W,  50,     , EX, , , , , , , , , , , , , ,    UNNAMED
AL, 02, 1892082312,   , BEST,   0, 570N,  410W,  50,     , EX, , , , , , , , , , , , , ,    UNNAMED
AL, 02, 1892082318,   , BEST,   0, 584N,  393W,  50,     , EX, , , , , , , , , , , , , ,    UNNAMED
AL, 02, 1892082400,   , BEST,   0, 595N,  370W,  45,     , EX, , , , , , , , , , , , , ,    UNNAMED
AL, 02, 1892082406,   , BEST,   0, 601N,  336W,  45,     , EX, , , , , , , , , , , , , ,    UNNAMED
AL, 02, 1892082412,   , BEST,   0, 606N,  310W,  40,     , EX, , , , , , , , , , , , , ,    UNNAMED
AL, 02, 1892082418,   , BEST,   0, 609N,  283W,  40,     , EX, , , , , , , , , , , , , ,    UNNAMED
